Weather in Kazachinskoe

Russia / Irkutsk Oblast     56°16′07″N   107°34′32″E
temp.,
°C
wind,
m/s
gust,
m/s
humid.,
%
clouds,
%
prec.,
mm/h
press.,
hPa
HPBL,
m
7 may, fri
fri723:000nnw1196100 0.0 101019
02:00−2nw24965 0.0 101165
05:00−2nnw39925 0.0 1012313
08:00+2n598042 0.0 1014719
11:00+4nne687146 0.0 10141080
14:00+6nne566626 0.1 10141068
17:00+6nne456858 0.0 10151013
20:00+2n23895 0.0 101652
8 may, sat
sat823:00−1wnw11945 0.0 101612
02:00−2w11955 0.0 101610
05:00−3wsw00955 0.0 101610
08:00+3se12775 0.0 1014301
11:00+9sse125785 0.0 1012994
14:00+11ese224844 0.0 10101554
17:00+11e114986 0.0 10091511
20:00+6wnw1175100 0.1 101110
9 may, sun
sun923:00+3wnw2289100 0.0 101231
02:00+2sw119389 0.0 101210
05:00+1wsw119484 0.0 101210
08:00+3sw1198100 2.8 1012451
11:00+9s2366100 0.1 10101269
14:00+9s2368100 0.8 10101088
17:00+9sse236773 0.6 1009877
20:00+7ssw0176100 1.1 100910
10 may, mon
mon1023:00+5nnw2290100 0.1 101130
02:00+5nnw229496 0.1 101170
05:00+3nnw2297100 0.0 101148
08:00+7n3681100 0.0 1011690
11:00+9n4564100 0.1 10111296
14:00+10nnw4561100 0.1 10111067
17:00+12nw4650100 0.0 10101250
20:00+10nnw4960100 0.1 1011432
11 may, tue
tue1123:00+6nw2580100 0.0 1012131
02:00+3wnw23824 0.0 101356
05:00+3nw2286100 0.0 101233
08:00+7n246598 0.0 1012579
11:00+10ne2357100 0.0 10111330
14:00+8ese1380100 0.6 1011953
17:00+7nne1289100 1.4 1011229
20:00+6nne3891100 4.1 1012803